TimePDT,TemperatureF,Dew PointF,Humidity,Sea Level PressureIn,VisibilityMPH,Wind Direction,Wind SpeedMPH,Gust SpeedMPH,PrecipitationIn,Events,Conditions,WindDirDegrees,DateUTC
12:53 AM,53.1,37.9,57,30.04,10.0,NW,5.8,-,N/A,,Clear,320,2013-09-27 07:53:00
1:53 AM,50.0,39.0,66,30.04,10.0,WNW,5.8,-,N/A,,Clear,300,2013-09-27 08:53:00
2:53 AM,50.0,39.0,66,30.05,10.0,WNW,4.6,-,N/A,,Clear,290,2013-09-27 09:53:00
3:53 AM,48.9,39.9,71,30.05,10.0,NW,3.5,-,N/A,,Clear,310,2013-09-27 10:53:00
4:53 AM,50.0,37.9,63,30.05,10.0,NW,6.9,-,N/A,,Clear,320,2013-09-27 11:53:00
5:53 AM,50.0,37.9,63,30.06,10.0,NW,6.9,-,N/A,,Clear,320,2013-09-27 12:53:00
6:53 AM,48.0,39.0,71,30.09,10.0,WNW,8.1,-,N/A,,Clear,300,2013-09-27 13:53:00
7:53 AM,51.1,37.9,61,30.10,10.0,NW,9.2,-,N/A,,Clear,320,2013-09-27 14:53:00
8:53 AM,55.9,41.0,57,30.10,10.0,NW,6.9,-,N/A,,Clear,310,2013-09-27 15:53:00
9:53 AM,63.0,42.1,46,30.11,10.0,NW,5.8,-,N/A,,Clear,310,2013-09-27 16:53:00
10:53 AM,66.0,42.1,42,30.11,10.0,WNW,6.9,-,N/A,,Clear,300,2013-09-27 17:53:00
11:53 AM,70.0,39.9,33,30.10,10.0,WNW,11.5,16.1,N/A,,Clear,300,2013-09-27 18:53:00
12:53 PM,73.9,39.0,28,30.09,10.0,NW,9.2,-,N/A,,Clear,320,2013-09-27 19:53:00
1:53 PM,73.9,39.0,28,30.07,10.0,West,10.4,-,N/A,,Clear,280,2013-09-27 20:53:00
2:53 PM,75.0,37.0,25,30.05,10.0,West,10.4,-,N/A,,Clear,270,2013-09-27 21:53:00
3:53 PM,75.0,37.0,25,30.04,10.0,WNW,6.9,-,N/A,,Clear,300,2013-09-27 22:53:00
4:53 PM,75.0,37.0,25,30.03,10.0,West,4.6,-,N/A,,Clear,260,2013-09-27 23:53:00
5:53 PM,75.0,36.0,24,30.03,10.0,West,3.5,-,N/A,,Clear,280,2013-09-28 00:53:00
6:53 PM,72.0,36.0,27,30.02,10.0,Calm,Calm,-,N/A,,Clear,0,2013-09-28 01:53:00
7:53 PM,64.9,39.9,40,30.04,10.0,NE,3.5,-,N/A,,Clear,40,2013-09-28 02:53:00
8:53 PM,64.9,39.0,39,30.04,10.0,Calm,Calm,-,N/A,,Clear,0,2013-09-28 03:53:00
9:53 PM,62.1,42.1,48,30.05,10.0,East,5.8,-,N/A,,Clear,80,2013-09-28 04:53:00
10:53 PM,61.0,44.1,54,30.05,10.0,Calm,Calm,-,N/A,,Clear,0,2013-09-28 05:53:00
11:53 PM,61.0,43.0,52,30.05,10.0,East,6.9,-,N/A,,Clear,80,2013-09-28 06:53:00